Weather Roundup
Issued by NWS Corpus Christi, TX

Home | Current Version | Previous Version | Text Only | Print | Product List | Glossary On
Versions: 1 2 3 4 5 6 7 8 9 10 11 12 13 14 15 16 17 18 19 20 21 22 23 24 25 26 27 28 29 30 31 32 33 34 35 36 37 38 39 40 41 42 43 44 45 46 47 48 49 50
000
ASUS44 KCRP 230010
HRRCRP

SOUTH TEXAS REGIONAL WEATHER ROUNDUP
NATIONAL WEATHER SERVICE CORPUS CHRISTI TX
700 PM CDT WED OCT 22 2014


TXZ229>244-230100-
...CORPUS CHRISTI AREA OBSERVATIONS...

CITY           SKY/WX    TMP DP  RH WIND       PRES   REMARKS
CORPUS CHRISTI PTCLDY    77  66  68 E13       30.02R
NAS CORPUS CHR PTCLDY    77  67  71 E10       30.02R
ROCKPORT       CLEAR     77  65  66 E13       30.02R
KINGSVILLE NAS PTCLDY    78  67  68 E9        30.02R
ALICE          CLEAR     78  63  59 E10       30.02R
FALFURRIAS     PTCLDY    77  64  62 E9        30.01R
$$

...VICTORIA AREA OBSERVATIONS...

CITY           SKY/WX    TMP DP  RH WIND       PRES   REMARKS
VICTORIA       CLEAR     77  64  64 SE9       30.03R
BEEVILLE       FAIR      79  60  51 SE7       30.02R
PLEASANTON     MOCLDY    81  54  39 E3        30.03R
SAN ANTONIO    CLOUDY    80  55  42 E6        30.05R
$$

...LAREDO AREA OBSERVATIONS...

CITY           SKY/WX    TMP DP  RH WIND       PRES   REMARKS
LAREDO         MOCLDY    82  63  52 E6        30.02R
COTULLA        MOCLDY    85  57  38 E9        30.00R
DEL RIO        LGT RAIN  65  62  90 CALM      30.07S FOG
MCALLEN        CLOUDY    79  66  64 E9        29.99R
HEBBRONVILLE   PTCLDY    79  63  57 E15       30.03R
$$

...OTHER TEXAS OBSERVATIONS...

CITY           SKY/WX    TMP DP  RH WIND       PRES   REMARKS
BROWNSVILLE    CLEAR     78  68  71 NE7       29.98R
HOUSTON        PTCLDY    73  58  59 NE6       30.05R
COL. STATION   CLEAR     75  56  51 NE6       30.06R
AUSTIN         MOCLDY    76  60  57 E9        30.05R
WACO           MOCLDY    74  58  57 E3        30.08R
FORT WORTH     CLOUDY    76  56  49 E7        30.08R
WICHITA FALLS  CLOUDY    71  58  63 S6        30.09R
LUBBOCK        MOCLDY    63  60  90 SE14      30.09S
EL PASO        PTCLDY    75  53  46 N6        30.07S
$$

...MARINE OBSERVATIONS...

STATION/POSITION TIME  SKY/WX   TEMP    WIND        PRES    VSBY  WAVE   SWELL
                                AIR SEA DIR/SP/G                  HT/PER HT/PER
                 (UTC)          (F)     (DEG/KT/KT) (MB)    (MI)  (FT/S) (FT/S)
PORT ARANSAS     0000            77 78   60/ 14/ 16 1017.4R
BUOY 90 E PORT A 0000            77 81   50/ 14/ 17 1016.4R         5/ 7   3/ 7
BUOY 45 SE BAFFI 0000            79 81   60/ 14/ 16 1015.2R         5/ 7   3/ 7
BUOY 200 E PT IS 0000            80 81   60/ 16/ 21 1013.7R         6/ 7   2/11
BUOY 15 E GALVES 0000            75 77   80/ 10/ 12 1016.7R         3/ 6   2/ 6
$$



USA.gov is the U.S. government's official web portal to all federal, state and local government web resources and services.